Leadville, CO

11:17 AM MDT on April 26, 2017 (GMT -0600)
Lake County

Weather History for KLXV - January, 2013

Change the Weather History Date:

Wednesday, January 30, 2013

  Actual Average Record
Temperature  
Mean Temperature 5 °F -  
Max Temperature 15 °F 30 °F 48 °F (1986)
Min Temperature -5 °F 3 °F -16 °F (1979)
Degree Days  
Heating Degree Days 60 48  
Month to date heating degree days 1510 1440  
Since 1 July heating degree days 6044 6341  
Cooling Degree Days 0 0  
Month to date cooling degree days 0 0  
Year to date cooling degree days 0 0  
Moisture  
Dew Point 2 °F    
Average Humidity 80    
Maximum Humidity 87    
Minimum Humidity 73    
Precipitation  
Precipitation 0.17 in 0.03 in 1.12 in (2014)
Month to date precipitation 0.55 0.60  
Year to date precipitation 0.55 0.60  
Sea Level Pressure  
Sea Level Pressure 29.93 in    
Wind  
Wind Speed 12 mph (NW)    
Max Wind Speed 22 mph    
Max Gust Speed 31 mph    
Visibility 2 miles    
Events Fog , Snow    
T = Trace of Precipitation, MM = Missing Value Source: NWS Daily Summary

Daily Weather History Graph

Daily Weather History Graph

Search for Another Location

Airport or City:

Trip Planner

Search our weather history database for the weather conditions in past years. The results will help you decide how hot, cold, wet, or windy it might be!

Date:

Astronomy

Jan. 30, 2013 Rise Set
Actual Time 7:13 AM MST 5:24 PM MST
Civil Twilight 6:45 AM MST 5:52 PM MST
Nautical Twilight 6:13 AM MST 6:24 PM MST
Astronomical Twilight 5:41 AM MST 6:56 PM MST
Moon 9:23 PM MST (1/30) 8:44 AM MST (1/30)
Length of Visible Light 11h 07m
Length of Day
10h 10m
Waning Gibbous, 87% of the Moon is Illuminated
Jan 30
Waning Gibbous
Feb 3
Last Quarter
Feb 10
New
Feb 17
First Quarter
Feb 25
Full

Hourly Weather History & Observations

Time (MST) Temp. Windchill Dew Point Humidity Pressure Visibility Wind Dir Wind Speed Gust Speed Precip Events Conditions
12:44 AM -4.0 °F -14.6 °F -9.4 °F 78% 29.76 in 3.0 mi NNE 4.6 mph - 0.00 in Snow Light Snow
12:53 AM -4.0 °F -12.4 °F -8.0 °F 83% 29.95 in 2.0 mi NNE 3.5 mph - 0.00 in Snow Light Snow
1:53 AM -0.0 °F -18.0 °F -5.1 °F 79% 29.91 in 2.0 mi WNW 12.7 mph 17.3 mph 0.00 in Snow Light Snow
2:09 AM 1.4 °F -14.5 °F -5.8 °F 72% 29.75 in 4.0 mi NW 10.4 mph - 0.00 in Snow Light Snow
2:53 AM 1.0 °F -8.7 °F -4.0 °F 79% 29.93 in 3.0 mi NNW 4.6 mph - 0.00 in Snow Light Snow
3:31 AM 1.4 °F -16.9 °F -5.8 °F 72% 29.77 in 2.5 mi WNW 13.8 mph 21.9 mph 0.00 in Snow Light Snow
3:39 AM 1.4 °F -17.6 °F -5.8 °F 72% 29.78 in 4.0 mi WNW 15.0 mph 24.2 mph 0.00 in Snow Light Snow
3:53 AM 1.0 °F -15.8 °F -6.0 °F 72% 29.95 in 4.0 mi WNW 11.5 mph - 0.00 in Snow Light Snow
4:05 AM 1.4 °F -15.3 °F -4.0 °F 78% 29.80 in 1.8 mi WNW 11.5 mph - 0.00 in Snow Light Snow
4:31 AM 1.4 °F -12.5 °F -5.8 °F 72% 29.81 in 1.8 mi NW 8.1 mph - 0.00 in Snow Light Snow
4:53 AM 1.0 °F -6.7 °F -4.0 °F 79% 29.99 in 1.5 mi WNW 3.5 mph - 0.00 in Snow Light Snow
5:19 AM 1.4 °F -11.3 °F -4.0 °F 78% 29.82 in 2.0 mi WNW 6.9 mph - 0.01 in Snow Light Snow
5:51 AM 1.4 °F -11.3 °F -5.8 °F 72% 29.82 in 1.8 mi NW 6.9 mph - 0.01 in Snow Light Snow
5:53 AM 1.9 °F -11.8 °F -5.1 °F 72% 30.00 in 1.8 mi NW 8.1 mph - 0.01 in Snow Light Snow
6:09 AM 1.4 °F -11.3 °F -4.0 °F 78% 29.83 in 2.0 mi NW 6.9 mph - 0.00 in Snow Light Snow
6:20 AM 1.4 °F -11.3 °F -4.0 °F 78% 29.83 in 1.8 mi NW 6.9 mph 19.6 mph 0.00 in Snow Light Snow
6:53 AM 1.9 °F -10.6 °F -4.0 °F 76% 30.02 in 1.5 mi NNW 6.9 mph - 0.00 in Snow Light Snow
7:21 AM 1.4 °F -13.5 °F -2.2 °F 85% 29.83 in 2.0 mi NNW 9.2 mph - 0.01 in Snow Light Snow
7:32 AM 1.4 °F -16.1 °F -2.2 °F 85% 29.84 in 1.8 mi WNW 12.7 mph 18.4 mph 0.01 in Snow Light Snow
7:53 AM 1.9 °F -18.7 °F -2.9 °F 80% 30.02 in 0.8 mi WNW 18.4 mph 27.6 mph 0.01 in Snow Light Snow
8:14 AM 1.4 °F -17.6 °F -2.2 °F 85% 29.86 in 1.0 mi NW 15.0 mph - 0.00 in Snow Light Snow
8:29 AM 1.4 °F -18.2 °F -2.2 °F 85% 29.87 in 0.8 mi WNW 16.1 mph 19.6 mph 0.00 in Snow Light Snow
8:53 AM 3.0 °F -16.7 °F -2.9 °F 76% 30.04 in 0.8 mi WNW 17.3 mph 27.6 mph 0.00 in Snow Light Snow
9:05 AM 3.2 °F -14.6 °F -2.2 °F 78% 29.87 in 1.5 mi WNW 13.8 mph 21.9 mph 0.00 in Snow Light Snow
9:11 AM 3.2 °F -12.2 °F -2.2 °F 78% 29.87 in 3.0 mi WNW 10.4 mph 20.7 mph 0.00 in Snow Light Snow
9:19 AM 3.2 °F -13.9 °F -2.2 °F 78% 29.87 in 5.0 mi NW 12.7 mph 19.6 mph 0.00 in   Haze
9:53 AM 5.0 °F -14.2 °F -2.0 °F 73% 30.06 in 4.0 mi NW 17.3 mph 23.0 mph 0.00 in   Haze
10:04 AM 5.0 °F -12.3 °F -0.4 °F 78% 29.89 in 1.8 mi WNW 13.8 mph - 0.00 in Snow Light Snow
10:14 AM 5.0 °F -12.3 °F -0.4 °F 78% 29.90 in 1.8 mi NW 13.8 mph 19.6 mph 0.00 in Snow Light Snow
10:38 AM 6.8 °F -5.9 °F -0.4 °F 72% 29.89 in 2.0 mi NW 8.1 mph 17.3 mph 0.00 in Snow Light Snow
10:50 AM 6.8 °F -4.8 °F -0.4 °F 72% 29.89 in 4.0 mi NW 6.9 mph - 0.00 in   Haze
10:53 AM 7.0 °F -4.5 °F -0.0 °F 73% 30.08 in 4.0 mi North 6.9 mph - 0.00 in   Haze
11:06 AM 8.6 °F -7.0 °F -0.4 °F 67% 29.87 in 8.0 mi NW 12.7 mph 18.4 mph N/A   Overcast
11:53 AM 9.0 °F -6.6 °F 1.9 °F 73% 30.07 in 6.0 mi NNW 12.7 mph 19.6 mph 0.01 in   Haze
12:45 PM 10.4 °F -7.2 °F 3.2 °F 73% 29.85 in 2.0 mi NW 17.3 mph 24.2 mph 0.00 in Snow Light Snow
12:53 PM 10.0 °F -7.1 °F 3.0 °F 73% 30.04 in 1.5 mi NNW 16.1 mph 24.2 mph 0.00 in Snow Light Snow
1:25 PM 10.4 °F -5.4 °F 5.0 °F 79% 29.85 in 0.8 mi NW 13.8 mph 20.7 mph 0.01 in Snow Light Snow
1:53 PM 10.9 °F -5.9 °F 6.1 °F 81% 29.99 in 0.5 mi NW 16.1 mph 23.0 mph 0.01 in Snow Snow
2:24 PM 10.4 °F -6.6 °F 6.8 °F 85% 29.85 in 0.2 mi NW 16.1 mph 31.1 mph 0.01 in Snow Heavy Snow
2:33 PM 10.4 °F -4.8 °F 6.8 °F 85% 29.85 in 0.5 mi NW 12.7 mph 23.0 mph 0.01 in Fog , Snow Light Snow
2:53 PM 10.9 °F -4.7 °F 7.0 °F 84% 30.00 in 0.5 mi NNW 13.8 mph 23.0 mph 0.02 in Fog , Snow Light Snow
3:43 PM 12.2 °F -4.3 °F 6.8 °F 79% 29.89 in 0.2 mi NNW 16.1 mph 24.2 mph 0.02 in Snow Heavy Snow
3:53 PM 12.0 °F -2.7 °F 8.1 °F 84% 30.01 in 0.2 mi NNW 12.7 mph 20.7 mph 0.03 in Fog , Snow Snow
4:01 PM 12.2 °F -3.1 °F 8.6 °F 85% 29.89 in 0.5 mi NW 13.8 mph 23.0 mph 0.00 in Fog , Snow Light Snow
4:18 PM 12.2 °F -4.3 °F 8.6 °F 85% 29.89 in 0.2 mi NNW 16.1 mph 23.0 mph 0.01 in Fog , Snow Snow
4:27 PM 12.2 °F -5.8 °F 8.6 °F 85% 29.89 in 0.5 mi NNW 19.6 mph 25.3 mph 0.01 in Fog , Snow Light Snow
4:51 PM 12.2 °F -4.3 °F 6.8 °F 79% 29.90 in 0.8 mi NW 16.1 mph 25.3 mph 0.02 in Snow Light Snow
4:53 PM 12.0 °F -2.0 °F 8.1 °F 84% 30.03 in 0.8 mi NNW 11.5 mph 25.3 mph 0.02 in Snow Light Snow
5:14 PM 12.2 °F -2.5 °F 8.6 °F 85% 29.91 in 0.5 mi NNW 12.7 mph 20.7 mph 0.00 in Fog , Snow Light Snow
5:24 PM 12.2 °F -1.8 °F 8.6 °F 85% 29.90 in 1.2 mi NNW 11.5 mph 18.4 mph 0.00 in Snow Light Snow
5:36 PM 12.2 °F -2.5 °F 8.6 °F 85% 29.91 in 1.5 mi NNW 12.7 mph 21.9 mph 0.01 in Snow Light Snow
5:53 PM 12.0 °F -4.0 °F 8.1 °F 84% 30.04 in 2.0 mi NW 15.0 mph 19.6 mph 0.01 in Snow Light Snow
6:05 PM 12.2 °F -3.1 °F 8.6 °F 85% 29.92 in 1.2 mi NNW 13.8 mph 21.9 mph 0.00 in Snow Light Snow
6:26 PM 12.2 °F -3.1 °F 8.6 °F 85% 29.93 in 1.0 mi NNW 13.8 mph 24.2 mph 0.01 in Snow Light Snow
6:46 PM 12.2 °F -2.5 °F 6.8 °F 79% 29.93 in 2.0 mi NNW 12.7 mph 26.5 mph 0.01 in Snow Light Snow
6:53 PM 12.9 °F -0.2 °F 7.0 °F 77% 30.05 in 3.0 mi NNW 10.4 mph 24.2 mph 0.01 in Snow Light Snow
7:12 PM 12.2 °F -2.5 °F 6.8 °F 79% 29.94 in 4.0 mi NW 12.7 mph 20.7 mph 0.00 in Snow Light Snow
7:53 PM 14.0 °F 0.5 °F 7.0 °F 74% 30.06 in 3.0 mi WNW 11.5 mph 25.3 mph 0.00 in Snow Light Snow
8:01 PM 12.2 °F -0.2 °F 6.8 °F 79% 29.95 in 2.5 mi WNW 9.2 mph 25.3 mph 0.00 in Snow Light Snow
8:53 PM 14.0 °F -0.8 °F 9.0 °F 80% 30.06 in 1.2 mi NW 13.8 mph 21.9 mph 0.01 in Snow Light Snow
9:22 PM 14.0 °F -1.4 °F 8.6 °F 79% 29.97 in 2.0 mi NW 15.0 mph 23.0 mph 0.00 in Snow Light Snow
9:53 PM 14.0 °F -1.4 °F 9.0 °F 80% 30.06 in 2.0 mi NNW 15.0 mph 23.0 mph 0.01 in Snow Light Snow
10:02 PM 14.0 °F -0.2 °F 8.6 °F 79% 29.97 in 1.8 mi NNW 12.7 mph 20.7 mph 0.00 in Snow Light Snow
10:10 PM 14.0 °F 2.0 °F 8.6 °F 79% 29.97 in 2.0 mi NW 9.2 mph 19.6 mph 0.00 in Snow Light Snow
10:53 PM 15.1 °F 1.1 °F 9.0 °F 77% 30.05 in 2.5 mi NW 12.7 mph 24.2 mph 0.00 in Snow Light Snow
11:12 PM 15.8 °F 1.4 °F 10.4 °F 79% 29.98 in 1.5 mi NNW 13.8 mph 21.9 mph 0.00 in Snow Light Snow
11:30 PM 15.8 °F 3.4 °F 10.4 °F 79% 29.99 in 1.2 mi North 10.4 mph - 0.01 in Snow Light Snow
11:53 PM 14.0 °F 1.2 °F 10.9 °F 88% 30.04 in 1.0 mi NNE 10.4 mph 19.6 mph 0.01 in Snow Light Snow